Location: Blandford
(50.8667°N, 2.1667°W)
Time: 09:15:21
(UTC+00:00)

Cosmos 1727 Rocket - Pass Details

Date: 09 April 2020
Orbit: 960 x 997 km, 82.9° (Epoch: 06 June)

Event Time Altitude Azimuth Distance (km) Brightness Sun altitude
Exits shadow 23:50:32 57° 277° (W) 1,152 4.3 -30.9°
Maximum altitude 23:50:45 58° 285° (WNW) 1,150 4.3 -30.9°
Drops below altitude 10° 23:57:01 10° 4° (N) 2,772 7.2 -31.0°
Sets 23:59:37 0° 8° (N) 3,728 8.1 -31.0°
